STARLINK-32176, 60340

Orbit data source: Space-Track

STARLINK-32176, 60340 is a payload satellite owned by SpaceX/Seattle (US) in LEO that was launched on Fri, 02 Aug 2024 UTC via an FALCON 9 launch vehicle from the Air Force Eastern Test Range (AFETR). Payload-class satellites include a variety of spacecraft equipped with specific instruments for various scientific and technological missions. These include communications satellites like Starlink; space stations such as the ISS; scientific satellites like the Hubble; Earth observation satellites from companies like Planet Labs, Umbra, and HawkEye 360; GPS; miniature CubeSats for education and research; and military/defense satellites.

Loading next visibility...
Identifier
60340, 2024-136M
Orbit
LEO
Last TLE update
1 day ago
Origin
Manufacturer
SpaceX/Seattle
Mission
Operational Commercial Communications
Bus & Motor
STARLINK V2M, Unknown motor
Mass
730 kg wet, ~700 kg dry
Launch date (UTC)
2024-08-02 (11 months ago)
Launch vehicle
FALCON 9
Launch site
Air Force Eastern Test Range (AFETR)
Object type
Payload
Rocket body
Debris
Shape & HBR
Box + 2 Pan, 29 m
Radar Cross Section
33.884 m², Large (>1 m²)

Expand to show TLE details & history

TLE from 1 day ago
0 STARLINK-32176
1 60340U 24136M   25181.24173868  .00000224  00000-0  19681-4 0  9992
2 60340  53.1595 168.2622 0001246  82.9672 277.1471 15.30194790 52181
Epoch: 2025-06-30T05:48Z
TLE epoch observation values (Epoch: 2025-06-30T05:48:06.221Z)
Latitude
Longitude
162.68192°
Altitude
476.024 km
Speed
7.629 km/s
True Right ascension
11h 13m 02s
True Declination
0° 00' 00"
Sunlit
Object was in daylight at epoch
Visualization orbit readout
Latitude
-24.73144°
Longitude
137.17486°
Altitude
482.801 km
Speed
7.624 km/s
Apparent Right ascension
09h 31m 06s
Apparent Declination
-31° 52' 50"
Sunlit
Object is in daylight
Visualization observer readout
Local Sidereal Time
21:31:13
Azimuth
0.172° NNE
Elevation
-81.964°
Doppler factor
1
Orbital elements
Apogee altitude
476.341 km
Perigee altitude
474.633 km
Semi-major axis
6,853.624 km
Eccentricity
0.00012
Inclination
53.1595°
RAAN
168.2622°
Arg. of periapsis
82.9672°
True anomaly
Unknown
Mean anomaly
277.1471°
Eccentric anomaly
Unknown
Mean motion
3.82528 °/min
Orbital period
94.11 mins
BSTAR
0.000019681
Loading maneuver chart data...
Loading SW <> Apogee altitude chart data...
Loading historical data...
Loading historical data...
Loading historical data...
Loading historical data...
Loading historical data...
Loading historical data...
Loading historical data...

STARLINK-32176 Visibility forecast

Observer location: undefined°, undefined°

Span
Click to sort rows by Start time (UTC) header in descending order
Start Az.
Max El. time (UTC)
Max El. Az.
Max El.
End time (UTC)
End Az.
4 mins2025-07-02 00:16:51.911Z163.36° S2025-07-02 00:18:51.911Z126.733° SE16.273°2025-07-02 00:20:51.911Z90.854° ESE
6 mins2025-07-02 01:53:51.911Z249.257° W2025-07-02 01:56:51.911Z355.847° N37.573°2025-07-02 01:59:51.911Z42.272° NE
4 mins2025-07-02 06:51:51.911Z354.213° N2025-07-02 06:52:51.911Z15.966° NNE19.835°2025-07-02 06:55:51.911Z74.453° E
6 mins2025-07-02 08:28:51.911Z301.884° NW2025-07-02 08:31:51.911Z180.983° SSW40.43°2025-07-02 08:34:51.911Z141.333° SSE
|